星链-30137 (STARLINK-30137 )

导读

STARLINK-30137是美国SpaceX星链互联网星座计划中的一颗卫星,于2023年6月4日发射,旨在为全球提供低延迟、高速率的宽带互联网覆盖,尤其服务偏远地区。作为星链组网的批量卫星之一,它工作于近地轨道,依托大规模星座部署,支撑全球卫星通信网络运行,服务民用与商业互联需求。

基本信息
目录编号:
56843
目录名称:
STARLINK-30137
国际标识:
2023-079W
轨道中心:
EARTH
卫星名称:
星链-30137
卫星全名:
星链-30137 (STARLINK-30137 )
卫星状态:
在轨 (已飞行1195 天)
发射日期:
2023-06-04 UTC
国别 :
美国 (US)
星等 :
--
该卫星已列入 空间交会检测服务 Space Conjunction Data Service (SCDS) ,当前飞行风险评估等级: 高风险
轨道信息
数据来源 国际轨道数据 AOE轨道数据
星历时间 2026-09-11T10:01:59+0800
12小时前
查看轨道信息
2026-09-09T21:00:00+0800
2天前
查看轨道信息
半长轴 6861.173km 6861.081km
偏心率 0.0001834 0.0001818
轨道倾角 43.003° 43.002°
近地点辐角 266.807° 253.973°
升交点赤经 139.803° 148.519°
平近点角 93.257° 250.589°
近地点 481.777km 481.696km
远地点 484.295km 484.192km
周期 94.266分钟 94.265分钟
每日圈数 15.275844 15.276152
详细信息
固有亮度:
5
最大亮度:
0.5
卫星平台:
Starlink v2.0 mini
覆盖范围:
全球
运营商:
太空探索技术公司
运营商所在国:
美国
制造商(研发单位):
太空探索技术公司
制造商所在国:
美国
使用方式:
暂无
卫星简介
星链(Starlink)计划是由太空探索技术公司(SpaceX)提出的一个巨型低轨卫星互联网星座项目,计划在2019年至2024年间在太空搭建由约1.2万颗卫星组成的“星链”网络,其中1584颗将部署在地球上空550千米处的近地轨道,并从2020年开始工作。该卫星仍在工作。
2D轨道图
3D轨道图
轨道高度分析图
轨道倾角分析图
轨道综合分析图
查看轨道综合分析图
与全量物体交会距离演化趋势
与全量物体交会风险概率演化趋势